This is the latest recevied weather packets stored in our database for station/object N1YZ. If no packets are shown the sender has not sent any weather packets the latest 10 day(s).
| Time | Temp. | Humidity | Pressure | Rain* | Wind** | Luminosity | Snow |
|---|---|---|---|---|---|---|---|
| 1777933803 | 24.44° C | 43% | 1032.8 hPa | 0 mm | - | 26 W/m² | - |
| 1777933500 | 24.44° C | 45% | 1033 hPa | 0 mm | - | 27 W/m² | - |
| 1777933198 | 25° C | 42% | 1032.9 hPa | 0 mm | - | 29 W/m² | - |
| 1777932895 | 25° C | 39% | 1032.8 hPa | 0 mm | - | 32 W/m² | - |
| 1777932592 | 25° C | 44% | 1033 hPa | 0 mm | - | 35 W/m² | - |
| 1777932288 | 25.56° C | 40% | 1033 hPa | 0 mm | - | 79 W/m² | - |
| 1777931985 | 26.67° C | 39% | 1033.1 hPa | 0 mm | - | 87 W/m² | - |
| 1777931682 | 26.11° C | 38% | 1032.9 hPa | 0 mm | - | 301 W/m² | - |
| 1777931379 | 26.11° C | 40% | 1033.1 hPa | 0 mm | - | 233 W/m² | - |
| 1777931075 | 25.56° C | 41% | 1033.1 hPa | 0 mm | - | 210 W/m² | - |
| 1777930772 | 25° C | 44% | 1033 hPa | 0 mm | - | 97 W/m² | - |
| 1777930468 | 25° C | 46% | 1033.2 hPa | 0 mm | - | 59 W/m² | - |
| 1777930166 | 25° C | 43% | 1033.4 hPa | 0 mm | - | 80 W/m² | - |
| 1777929861 | 25.56° C | 45% | 1032.9 hPa | 0 mm | - | 217 W/m² | - |
| 1777929559 | 25° C | 44% | 1033.2 hPa | 0 mm | - | 372 W/m² | - |
| 1777929255 | 25.56° C | 43% | 1033.2 hPa | 0 mm | - | 99 W/m² | - |
| 1777928952 | 25° C | 46% | 1033.1 hPa | 0 mm | - | 83 W/m² | - |
| 1777928649 | 25° C | 46% | 1033.1 hPa | 0 mm | - | 132 W/m² | - |
| 1777928347 | 24.44° C | 45% | 1033.3 hPa | 0 mm | - | 82 W/m² | - |
| 1777928044 | 24.44° C | 47% | 1033.4 hPa | 0 mm | - | 105 W/m² | - |
| 1777927742 | 24.44° C | 43% | 1033.4 hPa | 0 mm | - | 141 W/m² | - |
| 1777927440 | 25° C | 44% | 1033.4 hPa | 0 mm | - | 88 W/m² | - |
| 1777927140 | 25° C | 45% | 1033.3 hPa | 0 mm | - | 83 W/m² | - |
| 1777926836 | 25° C | 42% | 1033.4 hPa | 0 mm | - | 105 W/m² | - |
| 1777926532 | 25° C | 44% | 1033.5 hPa | 0 mm | - | 278 W/m² | - |
* Rain latest hour (hover to see other rain measurements)
** Current wind speed in m/s (hover to see current wind gust speed)